Location: Fernhill
(41.0167°S, 175.6333°E)
Time: 17:06:47
(UTC+00:00)

Meteor 2-6 Rocket - Pass Details

Date: 28 February 2026
Orbit: 804 x 913 km, 81.3° (Epoch: 8 March)

Event Time Altitude Azimuth Distance (km) Brightness Sun altitude
Exits shadow 07:37:41 - 46° (NE) 2,990 6.5 -7.3°
Reaches altitude 10° 07:39:18 10° 57° (ENE) 2,571 6.1 -7.6°
Maximum altitude 07:42:58 17° 96° (E) 2,118 5.7 -8.2°
Drops below altitude 10° 07:46:42 10° 135° (SE) 2,622 6.5 -8.9°
Sets 07:50:03 0° 153° (SSE) 3,580 7.4 -9.5°
